When you browse on this site, cookies collect data to enhance your experience and personalize the content and advertising you see.
Visit our Privacy Policy to learn more. By continuing to use the site, you agree to this use of cookies and data.
  • en Suisse
  • Liste des pays
  • À 7 jours
  • Température de l'eau
  • Carte météo
  • Widgets météo
  • user-avatar
    Se connecter

    Météo par heure à Kuzaj

    Ce jour, 25 Mai, Lundi

    Heure Température Précipitation Vent Pression Humidité
    00:00 +9°C° 0 mm 3 m/s 753 mmHg 92%
    01:00 +8°C° 0 mm 4 m/s 753 mmHg 93%
    02:00 +9°C° 0.2 mm 3 m/s 753 mmHg 94%
    03:00 +9°C° 0.2 mm 3 m/s 753 mmHg 95%
    04:00 +9°C° 0.2 mm 3 m/s 753 mmHg 96%
    05:00 +10°C° 1.2 mm 4 m/s 753 mmHg 93%
    06:00 +10°C° 1.2 mm 4 m/s 753 mmHg 91%
    07:00 +9°C° 1.2 mm 5 m/s 753 mmHg 89%
    08:00 +9°C° 0.4 mm 5 m/s 753 mmHg 89%
    09:00 +10°C° 0.4 mm 4 m/s 753 mmHg 89%
    10:00 +10°C° 0.4 mm 4 m/s 753 mmHg 89%
    11:00 +11°C° 0.3 mm 4 m/s 753 mmHg 83%
    12:00 +12°C° 0.3 mm 4 m/s 753 mmHg 78%
    13:00 +14°C° 0.3 mm 3 m/s 753 mmHg 72%
    14:00 +14°C° 0.4 mm 4 m/s 753 mmHg 73%
    15:00 +14°C° 0.4 mm 4 m/s 753 mmHg 73%
    16:00 +14°C° 0.4 mm 4 m/s 753 mmHg 73%
    17:00 +14°C° 0.2 mm 4 m/s 753 mmHg 78%
    18:00 +13°C° 0.2 mm 3 m/s 754 mmHg 83%
    19:00 +12°C° 0.2 mm 3 m/s 754 mmHg 88%
    20:00 +11°C° 0.2 mm 3 m/s 754 mmHg 90%
    21:00 +11°C° 0.2 mm 3 m/s 755 mmHg 92%
    22:00 +10°C° 0.2 mm 3 m/s 755 mmHg 94%
    23:00 +10°C° 0.1 mm 3 m/s 755 mmHg 95%

    Demain, 26 Mai, Mardi

    Heure Température Précipitation Vent Pression Humidité
    00:00 +9°C° 0.1 mm 3 m/s 756 mmHg 96%
    01:00 +9°C° 0.1 mm 3 m/s 756 mmHg 96%
    02:00 +8°C° 0 mm 3 m/s 756 mmHg 97%
    03:00 +7°C° 0 mm 3 m/s 756 mmHg 97%
    04:00 +7°C° 0 mm 3 m/s 756 mmHg 97%
    05:00 +7°C° 0 mm 4 m/s 757 mmHg 95%
    06:00 +8°C° 0 mm 4 m/s 757 mmHg 92%
    07:00 +10°C° 0 mm 4 m/s 758 mmHg 90%
    08:00 +11°C° 0 mm 4 m/s 758 mmHg 84%
    09:00 +13°C° 0 mm 4 m/s 758 mmHg 79%
    10:00 +14°C° 0 mm 5 m/s 758 mmHg 74%
    11:00 +15°C° 0.3 mm 5 m/s 758 mmHg 72%
    12:00 +16°C° 0.3 mm 5 m/s 757 mmHg 70%
    13:00 +17°C° 0.3 mm 5 m/s 757 mmHg 68%
    14:00 +17°C° 0.4 mm 5 m/s 757 mmHg 68%
    15:00 +17°C° 0.4 mm 6 m/s 757 mmHg 69%
    16:00 +17°C° 0.4 mm 6 m/s 757 mmHg 69%
    17:00 +16°C° 0.1 mm 5 m/s 757 mmHg 73%
    18:00 +15°C° 0.1 mm 4 m/s 757 mmHg 78%
    19:00 +14°C° 0.1 mm 3 m/s 757 mmHg 82%
    20:00 +13°C° 0 mm 3 m/s 757 mmHg 85%
    21:00 +12°C° 0 mm 3 m/s 758 mmHg 88%
    22:00 +10°C° 0 mm 3 m/s 758 mmHg 91%
    23:00 +10°C° 0 mm 3 m/s 758 mmHg 92%

    Après-demain, 27 Mai, Mercredi

    Heure Température Précipitation Vent Pression Humidité
    00:00 +9°C° 0 mm 3 m/s 758 mmHg 94%
    01:00 +9°C° 0 mm 3 m/s 758 mmHg 95%
    02:00 +8°C° 0 mm 3 m/s 758 mmHg 95%
    03:00 +8°C° 0 mm 2 m/s 758 mmHg 95%
    04:00 +7°C° 0 mm 2 m/s 758 mmHg 95%
    05:00 +9°C° 0 mm 3 m/s 758 mmHg 90%
    06:00 +10°C° 0 mm 3 m/s 758 mmHg 86%
    07:00 +11°C° 0 mm 3 m/s 758 mmHg 81%
    08:00 +13°C° 0 mm 3 m/s 758 mmHg 75%
    09:00 +15°C° 0 mm 4 m/s 757 mmHg 69%
    10:00 +17°C° 0 mm 4 m/s 757 mmHg 63%
    11:00 +18°C° 0 mm 4 m/s 757 mmHg 60%
    12:00 +19°C° 0 mm 4 m/s 757 mmHg 57%
    13:00 +19°C° 0 mm 4 m/s 756 mmHg 54%
    14:00 +19°C° 0 mm 4 m/s 756 mmHg 55%
    15:00 +19°C° 0 mm 4 m/s 755 mmHg 56%
    16:00 +19°C° 0 mm 4 m/s 755 mmHg 58%
    17:00 +18°C° 0 mm 3 m/s 755 mmHg 64%
    18:00 +17°C° 0 mm 3 m/s 755 mmHg 69%
    19:00 +15°C° 0 mm 2 m/s 754 mmHg 75%
    20:00 +15°C° 0 mm 2 m/s 754 mmHg 73%
    21:00 +14°C° 0 mm 2 m/s 754 mmHg 72%
    22:00 +14°C° 0 mm 2 m/s 754 mmHg 70%
    23:00 +13°C° 0.1 mm 2 m/s 754 mmHg 76%

    28 Mai, Jeudi

    Heure Température Précipitation Vent Pression Humidité
    00:00 +12°C° 0.1 mm 3 m/s 754 mmHg 82%
    01:00 +12°C° 0.1 mm 3 m/s 754 mmHg 88%
    02:00 +11°C° 0.3 mm 4 m/s 754 mmHg 87%
    03:00 +10°C° 0.3 mm 4 m/s 754 mmHg 87%
    04:00 +9°C° 0.3 mm 5 m/s 754 mmHg 86%
    05:00 +9°C° 0 mm 5 m/s 754 mmHg 84%
    06:00 +9°C° 0 mm 5 m/s 754 mmHg 82%
    07:00 +9°C° 0 mm 5 m/s 754 mmHg 79%
    08:00 +10°C° 0 mm 5 m/s 754 mmHg 75%
    09:00 +12°C° 0 mm 5 m/s 753 mmHg 70%
    10:00 +13°C° 0 mm 6 m/s 753 mmHg 66%
    11:00 +14°C° 0 mm 6 m/s 753 mmHg 64%
    12:00 +14°C° 0 mm 6 m/s 752 mmHg 62%
    13:00 +15°C° 0 mm 6 m/s 752 mmHg 61%
    14:00 +15°C° 0.1 mm 6 m/s 752 mmHg 63%
    15:00 +15°C° 0.1 mm 6 m/s 752 mmHg 65%
    16:00 +15°C° 0.1 mm 6 m/s 751 mmHg 66%
    17:00 +14°C° 0.1 mm 5 m/s 751 mmHg 72%
    18:00 +13°C° 0.1 mm 5 m/s 751 mmHg 78%
    19:00 +12°C° 0.1 mm 4 m/s 752 mmHg 83%
    20:00 +11°C° 0 mm 4 m/s 752 mmHg 86%
    21:00 +9°C° 0 mm 3 m/s 752 mmHg 89%
    22:00 +8°C° 0 mm 3 m/s 752 mmHg 91%
    23:00 +7°C° 0 mm 2 m/s 752 mmHg 91%

    29 Mai, Vendredi

    Heure Température Précipitation Vent Pression Humidité
    00:00 +7°C° 0 mm 2 m/s 752 mmHg 92%
    01:00 +6°C° 0 mm 2 m/s 752 mmHg 92%
    02:00 +6°C° 0 mm 2 m/s 751 mmHg 92%
    03:00 +6°C° 0 mm 2 m/s 751 mmHg 91%
    04:00 +6°C° 0 mm 2 m/s 751 mmHg 91%
    05:00 +7°C° 0 mm 2 m/s 751 mmHg 87%
    06:00 +9°C° 0 mm 2 m/s 751 mmHg 83%
    07:00 +10°C° 0 mm 2 m/s 751 mmHg 79%
    08:00 +10°C° 0.2 mm 3 m/s 750 mmHg 75%
    09:00 +11°C° 0.2 mm 3 m/s 750 mmHg 71%
    10:00 +12°C° 0.2 mm 3 m/s 750 mmHg 67%
    11:00 +12°C° 0.2 mm 3 m/s 750 mmHg 65%
    12:00 +13°C° 0.2 mm 3 m/s 749 mmHg 63%
    13:00 +14°C° 0.2 mm 2 m/s 749 mmHg 62%
    14:00 +14°C° 0.3 mm 2 m/s 749 mmHg 62%
    15:00 +15°C° 0.3 mm 2 m/s 748 mmHg 62%
    16:00 +15°C° 0.3 mm 2 m/s 748 mmHg 63%
    17:00 +14°C° 0.2 mm 2 m/s 748 mmHg 68%
    18:00 +13°C° 0.2 mm 2 m/s 748 mmHg 73%
    19:00 +12°C° 0.2 mm 2 m/s 748 mmHg 78%
    20:00 +10°C° 0 mm 2 m/s 748 mmHg 81%
    21:00 +9°C° 0 mm 2 m/s 748 mmHg 84%
    22:00 +8°C° 0 mm 2 m/s 749 mmHg 87%
    23:00 +8°C° 0 mm 2 m/s 748 mmHg 88%

    30 Mai, Samedi

    Heure Température Précipitation Vent Pression Humidité
    00:00 +8°C° 0 mm 3 m/s 748 mmHg 89%
    01:00 +8°C° 0 mm 3 m/s 748 mmHg 90%
    02:00 +8°C° 0.4 mm 3 m/s 748 mmHg 92%
    03:00 +8°C° 0.4 mm 3 m/s 748 mmHg 94%
    04:00 +8°C° 0.4 mm 3 m/s 748 mmHg 97%
    05:00 +8°C° 1.4 mm 3 m/s 748 mmHg 96%
    06:00 +8°C° 1.4 mm 4 m/s 748 mmHg 95%
    07:00 +8°C° 1.4 mm 5 m/s 747 mmHg 94%
    08:00 +8°C° 1.1 mm 5 m/s 747 mmHg 94%
    09:00 +8°C° 1.1 mm 5 m/s 747 mmHg 95%
    10:00 +8°C° 1.1 mm 5 m/s 747 mmHg 95%
    11:00 +9°C° 0.9 mm 5 m/s 747 mmHg 95%
    12:00 +10°C° 0.9 mm 4 m/s 747 mmHg 95%
    13:00 +10°C° 0.9 mm 3 m/s 747 mmHg 95%
    14:00 +11°C° 0.2 mm 4 m/s 747 mmHg 91%
    15:00 +13°C° 0.2 mm 4 m/s 747 mmHg 88%
    16:00 +14°C° 0.2 mm 4 m/s 747 mmHg 84%
    17:00 +13°C° 0.2 mm 3 m/s 747 mmHg 86%
    18:00 +13°C° 0.2 mm 3 m/s 747 mmHg 88%
    19:00 +13°C° 0.2 mm 2 m/s 747 mmHg 90%
    20:00 +12°C° 0 mm 2 m/s 747 mmHg 91%
    21:00 +12°C° 0 mm 2 m/s 747 mmHg 92%
    22:00 +11°C° 0 mm 1 m/s 747 mmHg 93%
    23:00 +11°C° 0 mm 1 m/s 747 mmHg 93%
    Voir plus